Chippewa, MI

10:10 PM EST on November 11, 2019 (GMT -0500)
Chippewa County International

Weather History for KCIU - October, 2019

Change the Weather History Date:

Tuesday, October 22, 2019

  Actual Average Record
Temperature  
Mean Temperature 48 °F -  
Max Temperature 53 °F 48 °F 73 °F (2017)
Min Temperature 44 °F 30 °F 24 °F (1997)
Degree Days  
Heating Degree Days 16    
Moisture  
Dew Point 45 °F    
Average Humidity 90    
Maximum Humidity 100    
Minimum Humidity 68    
Precipitation  
Precipitation 0.24 in - - ()
Sea Level Pressure  
Sea Level Pressure 29.42 in    
Wind  
Wind Speed 12 mph ()    
Max Wind Speed 22 mph    
Max Gust Speed 28 mph    
Visibility 9.7 miles    
Events Rain    
Averages and records for this station are not official NWS values.
T = Trace of Precipitation, MM = Missing Value Source: Averaged Metar Reports

Daily Weather History Graph

Daily Weather History Graph

Search for Another Location

Airport or City:

Astronomy

Oct. 22, 2019 Rise Set
Actual Time 8:04 AM EDT 6:39 PM EDT
Civil Twilight 7:33 AM EDT 7:10 PM EDT
Nautical Twilight 6:58 AM EDT 7:45 PM EDT
Astronomical Twilight 6:24 AM EDT 8:19 PM EDT
Moon 12:44 AM EDT (10/22) 4:14 PM EDT (10/22)
Length of Visible Light 11h 36m
Length of Day
10h 35m
Last Quarter, 37% of the Moon is Illuminated
Oct 22
Last Quarter
Oct 27
New
Nov 4
First Quarter
Nov 12
Full
Nov 19
Last Quarter

Hourly Weather History & Observations

Time (EDT) Temp. Windchill Dew Point Humidity Pressure Visibility Wind Dir Wind Speed Gust Speed Precip Events Conditions
12:56 AM 52.0 °F - 51.1 °F 97% 29.50 in 10.0 mi SE 17.3 mph - N/A   Overcast
1:56 AM 53.1 °F - 52.0 °F 96% 29.48 in 10.0 mi SE 12.7 mph - 0.00 in Rain Light Rain
2:56 AM 53.1 °F - 52.0 °F 96% 29.47 in 10.0 mi SE 11.5 mph - 0.00 in   Overcast
3:44 AM 51.8 °F - 51.8 °F 100% 29.46 in 10.0 mi SSE 8.1 mph - N/A   Overcast
3:56 AM 51.1 °F - 50.0 °F 96% 29.46 in 10.0 mi SSE 6.9 mph - N/A   Overcast
4:29 AM 48.2 °F - 48.2 °F 100% 29.45 in 8.0 mi SSE 9.2 mph - N/A   Partly Cloudy
4:56 AM 51.1 °F - 48.9 °F 92% 29.47 in 10.0 mi SSW 8.1 mph - N/A   Scattered Clouds
5:56 AM 48.9 °F - 42.1 °F 77% 29.46 in 10.0 mi South 10.4 mph - N/A   Overcast
6:56 AM 45.0 °F 38.9 °F 42.1 °F 90% 29.44 in 10.0 mi SSE 12.7 mph - N/A   Overcast
7:56 AM 46.0 °F 40.6 °F 42.1 °F 86% 29.42 in 10.0 mi SSE 11.5 mph - N/A   Clear
8:56 AM 48.0 °F - 43.0 °F 83% 29.41 in 10.0 mi SE 17.3 mph - N/A   Mostly Cloudy
9:56 AM 48.9 °F - 43.0 °F 80% 29.39 in 10.0 mi SSE 18.4 mph 25.3 mph N/A   Mostly Cloudy
10:56 AM 50.0 °F - 42.1 °F 74% 29.37 in 10.0 mi SSE 19.6 mph 26.5 mph N/A   Overcast
11:56 AM 50.0 °F - 42.1 °F 74% 29.37 in 10.0 mi South 19.6 mph 26.5 mph N/A   Overcast
12:56 PM 51.1 °F - 41.0 °F 68% 29.34 in 10.0 mi South 18.4 mph 27.6 mph 0.00 in   Overcast
1:51 PM 48.2 °F - 42.8 °F 82% 29.32 in 10.0 mi South 21.9 mph 27.6 mph 0.00 in Rain Light Rain
1:56 PM 48.0 °F - 43.0 °F 83% 29.34 in 10.0 mi South 11.5 mph 27.6 mph 0.01 in Rain Light Rain
2:56 PM 48.0 °F - 45.0 °F 89% 29.34 in 10.0 mi South 10.4 mph 18.4 mph 0.01 in Rain Light Rain
3:56 PM 48.0 °F - 44.1 °F 86% 29.35 in 10.0 mi South 17.3 mph 24.2 mph 0.02 in Rain Light Rain
4:08 PM 48.2 °F - 44.6 °F 87% 29.35 in 10.0 mi SSW 11.5 mph 20.7 mph 0.00 in Rain Light Rain
4:45 PM 48.2 °F - 44.6 °F 87% 29.36 in 10.0 mi South 12.7 mph 23.0 mph 0.01 in Rain Light Rain
4:56 PM 48.0 °F - 45.0 °F 89% 29.37 in 10.0 mi South 12.7 mph 20.7 mph 0.01 in Rain Light Rain
5:56 PM 48.0 °F - 43.0 °F 83% 29.39 in 10.0 mi South 15.0 mph 27.6 mph 0.01 in Rain Light Rain
6:56 PM 46.0 °F 41.0 °F 44.1 °F 93% 29.42 in 10.0 mi South 10.4 mph 18.4 mph 0.01 in Rain Light Rain
7:03 PM 46.4 °F 41.5 °F 44.6 °F 93% 29.41 in 10.0 mi South 10.4 mph - 0.00 in Rain Light Rain
7:21 PM 46.4 °F 41.1 °F 44.6 °F 93% 29.42 in 10.0 mi SSW 11.5 mph 21.9 mph 0.00 in Rain Light Rain
7:56 PM 45.0 °F 38.5 °F 44.1 °F 97% 29.44 in 10.0 mi SSW 13.8 mph 18.4 mph 0.02 in Rain Light Rain
8:12 PM 44.6 °F 39.2 °F 44.6 °F 100% 29.43 in 10.0 mi SSW 10.4 mph 18.4 mph 0.00 in Rain Light Rain
8:56 PM 45.0 °F 39.7 °F 44.1 °F 97% 29.44 in 9.0 mi South 10.4 mph 21.9 mph 0.03 in Rain Light Rain
9:09 PM 44.6 °F 39.2 °F 44.6 °F 100% 29.44 in 9.0 mi SSW 10.4 mph 16.1 mph 0.01 in Rain Rain
9:18 PM 44.6 °F 40.7 °F 44.6 °F 100% 29.44 in 8.0 mi Variable 6.9 mph 16.1 mph 0.02 in Rain Light Rain
9:27 PM 44.6 °F 39.7 °F 44.6 °F 100% 29.44 in 10.0 mi SSW 9.2 mph 19.6 mph 0.02 in Rain Light Rain
9:45 PM 44.6 °F 39.2 °F 44.6 °F 100% 29.45 in 9.0 mi South 10.4 mph 19.6 mph 0.06 in Rain Rain
9:56 PM 45.0 °F 39.7 °F 44.1 °F 97% 29.45 in 8.0 mi South 10.4 mph 17.3 mph 0.08 in Rain Rain
10:56 PM 45.0 °F 39.7 °F 43.0 °F 93% 29.46 in 10.0 mi SSW 10.4 mph 17.3 mph 0.03 in Rain Light Rain
11:56 PM 44.1 °F 39.0 °F 43.0 °F 96% 29.46 in 10.0 mi South 9.2 mph - 0.01 in Rain Light Rain